Regional Weather Roundup
Issued by NWS Charleston, SC

Current Version | Previous Version | Text Only | Print | Product List | Glossary Off
Versions: 1 2 3 4 5 6 7 8 9 10 11 12 13 14 15 16 17 18 19 20 21 22 23 24 25 26 27 28 29 30 31 32 33 34 35 36 37 38 39 40 41 42 43 44 45 46 47 48 49 50
046 ASUS42 KCHS 171512 RWRCHS Regional Weather Roundup National Weather Service Charleston SC 1000 AM EST SAT FEB 17 2018 NOTE: "fair" indicates few or no clouds below 12,000 feet with no significant weather and/or obstructions to visibility. Not all stations are quality controlled. Use data with caution, especially dewpoint observations. SCZ027-030-031-034>040-042>050-171600- ...Southeast South Carolina... CITY SKY/WX TMP DP RH WIND PRES REMARKS N Charleston CLOUDY 64 57 78 E10 30.20S Waterfront Prk N/A 60 57 89 E15 30.06R Mount Pleasant CLOUDY 61 55 82 E6 30.21S Johns Island CLOUDY 63 57 82 NE10G16 30.20S Pinopolis N/A 61 55 82 E7 30.13R Moncks Corner CLOUDY 61 52 72 SE8 30.21S Summerville CLOUDY 63 54 72 E6 30.21S Beaufort MCAS CLOUDY 67 57 70 E7G20 30.19S Beaufort Arpt CLOUDY 63 55 77 E9 30.19S Hilton Head Is MOSUNNY 63 55 77 NE9 30.20S Walterboro FAIR 68 52 56 E13 30.20F Allendale FAIR 68 55 64 E7 30.17S ...Southern Midlands and Pee Dee... CITY SKY/WX TMP DP RH WIND PRES REMARKS Georgetown CLOUDY 54 50 87 E13 30.25R Kingstree CLOUDY 59 52 77 E9 30.22S Orangeburg CLOUDY 66 50 56 SE8 30.19S Barnwell N/A 68 57 68 SE10G16 30.18S Aiken CLOUDY 63 55 77 E5 30.20S Manning CLOUDY 61 1 9 MISG 30.21S Columbia CLOUDY 64 51 62 E9 30.18S Sumter CLOUDY 62 44 51 E9 30.18S Florence CLOUDY 61 47 59 E13 30.22S Myrtle Beach CLOUDY 56 44 64 E17G23 30.25S N Myrtle Beach CLOUDY 56 44 64 NE9 30.23S $$ GAZ063-065-086>088-099>101-113>116-118-119-134>141-150-171600- ...Southeast Georgia... CITY SKY/WX TMP DP RH WIND PRES REMARKS Savannah Arpt PTSUNNY 69 60 73 E12 30.18S Hunter AAF FAIR 67 65 94 E9 30.16S Fort Stewart CLOUDY 63 63 100 E3 30.16S Statesboro PTSUNNY 69 57 66 SE5 30.17F Sylvania FAIR 68 60 75 SE7 30.18F Claxton FAIR 70 64 80 CALM 30.17S ...CSRA, Central and far Southeast Georgia... CITY SKY/WX TMP DP RH WIND PRES REMARKS Thomson CLOUDY 65 58 77 S5 30.20S Augusta-Bush CLOUDY 69 59 70 SE9 30.14F Augusta-Daniel CLOUDY 67 58 72 SE10 30.16S Swainsboro CLOUDY 68 61 77 E3 30.17S Vidalia FAIR 70 63 78 S3 30.17S Eastman FAIR 71 55 56 S5 30.18F Hazlehurst PTSUNNY 64 64 98 S7 30.17S Alma FOG 63 62 97 S6 30.18S VSB 3/4 Waycross CLOUDY 63 60 90 SW7 30.19S FOG Jesup FOG 64 63 94 CALM 30.19R VSB 1 Baxley CLOUDY 61 61 100 S6 30.18S FOG Brunswick CLOUDY 63 61 94 CALM 30.19S Saint Simons FOG 63 63 100 W6 30.18S VSB 1/2 $$ SCZ027-028-034-036>038-045-046-048>050-GAZ119-141-171600- ...Lake and Supplemental Coastal Observations... STATION/POSITION TIME TEMP WIND PRES WAVE SWELL AIR SEA DIR/SP/G HT/PER HT/PER/DIR (UTC) (F) (DEG/KT/KT) (MB) (FT/S) (FT/S/D) Winyah Bay 1345 54 60/ 18 1023.0 Lake Murray 1420 60 80/ 9/ 11 1021.7 ACE Basin NERRS 1345 64 70/ 5 1022.0 Fort Pulaski 1448 60 57 80/ 9/ 11 1022.4R Sapelo Island 1400 62 260/ 3 1022.0 $$ ANZ835-935-AMZ111-154-330-350-352-354-370-450-454-472-171600- ...C-MAN and Buoy Observations... STATION/POSITION TIME TEMP WIND PRES WAVE SWELL AIR SEA DIR/SP/G HT/PER HT/PER/DIR (UTC) (F) (DEG/KT/KT) (MB) (FT/S) (FT/S/D) Buoy 41004 1450 68 80/ 17/ 21 1021.8S 5/ 5 2/110/10 Buoy 41008 1450 58 57 230/ 2/ 2 1021.7R 2/11 2/100/11 Folly Beach CMAN 1400 58 60/ 13/ 15 1022.9R Capers Nearshore 1408 54 56 60/ 14/ 17 1022.2R Fripp Nearshore 1408 56 55 60/ 8/ 10 1022.0R STATION/POSITION TIME TEMP WIND PRES WAVE SWELL AIR SEA DIR/SP/G HT/PER HT/PER/DIR (UTC) (F) (DEG/KT/KT) (MB) (FT/S) (FT/S/D) 5E St. Marys GA 1430 58 N/A 2/11 2/100/11 Frying Pan Buoy 1450 61 64 50/ 19/ 23 1023.2R 7/ 6 2/120/11 Buoy 41025 1450 57 70 40/ 19/ 23 1025.3F 7/ 8 Cape Lookout NC 1400 30/ 21/ 25 1026.0R Buoy 41002 1450 71 72 80/ 14/ 16 1022.4R 6/ 8 5/260/ 8 Buoy 41010 NOT AVBL St Augustine FL 1500 69 57 290/ 4/ 5 1023.1R $$

USA.gov is the U.S. government's official web portal to all federal, state and local government web resources and services.